When you browse on this site, cookies collect data to enhance your experience and personalize the content and advertising you see.
Visit our Privacy Policy to learn more. By continuing to use the site, you agree to this use of cookies and data.
  • En España
  • Lista de países
  • Para 7 días
  • Temperatura del agua
  • Mapa Satelital
  • El tiempo en el mapa
  • Informadores
  • user-avatar
    Iniciar sesión

    Tiempo cada hora Makarska

    Hoy, 22 Abril, Lunes

    Tiempo Temperatura Precipitaciones Viento Presión Humedad
    00:00 +14°C° 0 mm 4 mps 763 mmHg 88%
    01:00 +14°C° 0 mm 4 mps 763 mmHg 90%
    02:00 +14°C° 0 mm 4 mps 763 mmHg 90%
    03:00 +13°C° 0 mm 4 mps 762 mmHg 90%
    04:00 +13°C° 0 mm 4 mps 762 mmHg 90%
    05:00 +14°C° 0 mm 4 mps 762 mmHg 87%
    06:00 +14°C° 0 mm 5 mps 761 mmHg 83%
    07:00 +15°C° 0 mm 6 mps 761 mmHg 79%
    08:00 +16°C° 0 mm 7 mps 761 mmHg 75%
    09:00 +17°C° 0 mm 7 mps 760 mmHg 71%
    10:00 +18°C° 0 mm 8 mps 760 mmHg 67%
    11:00 +18°C° 0 mm 8 mps 759 mmHg 67%
    12:00 +18°C° 0 mm 9 mps 759 mmHg 68%
    13:00 +18°C° 0 mm 9 mps 759 mmHg 69%
    14:00 +18°C° 0 mm 10 mps 758 mmHg 69%
    15:00 +17°C° 0 mm 10 mps 757 mmHg 69%
    16:00 +17°C° 0 mm 11 mps 757 mmHg 69%
    17:00 +16°C° 0 mm 11 mps 757 mmHg 71%
    18:00 +16°C° 0 mm 11 mps 756 mmHg 73%
    19:00 +14°C° 0 mm 11 mps 756 mmHg 75%
    20:00 +14°C° 0.7 mm 11 mps 756 mmHg 79%
    21:00 +13°C° 0.7 mm 11 mps 757 mmHg 83%
    22:00 +13°C° 0.7 mm 11 mps 757 mmHg 87%
    23:00 +13°C° 0.6 mm 11 mps 756 mmHg 85%

    Mañana, 23 Abril, Martes

    Tiempo Temperatura Precipitaciones Viento Presión Humedad
    00:00 +13°C° 0.6 mm 12 mps 756 mmHg 84%
    01:00 +13°C° 0.6 mm 12 mps 755 mmHg 82%
    02:00 +13°C° 0.1 mm 11 mps 755 mmHg 81%
    03:00 +13°C° 0.1 mm 11 mps 754 mmHg 80%
    04:00 +13°C° 0.1 mm 10 mps 754 mmHg 79%
    05:00 +13°C° 0.1 mm 10 mps 754 mmHg 79%
    06:00 +13°C° 0.1 mm 11 mps 754 mmHg 79%
    07:00 +14°C° 0.1 mm 11 mps 753 mmHg 80%
    08:00 +14°C° 0.1 mm 11 mps 753 mmHg 81%
    09:00 +14°C° 0.1 mm 11 mps 753 mmHg 82%
    10:00 +14°C° 0.1 mm 12 mps 753 mmHg 83%
    11:00 +16°C° 0.1 mm 11 mps 753 mmHg 83%
    12:00 +16°C° 0.1 mm 11 mps 753 mmHg 83%
    13:00 +16°C° 0.1 mm 11 mps 754 mmHg 83%
    14:00 +16°C° 0.1 mm 11 mps 754 mmHg 83%
    15:00 +16°C° 0.1 mm 11 mps 754 mmHg 84%
    16:00 +17°C° 0.1 mm 11 mps 754 mmHg 85%
    17:00 +16°C° 1.3 mm 10 mps 754 mmHg 86%
    18:00 +16°C° 1.3 mm 10 mps 754 mmHg 87%
    19:00 +16°C° 1.3 mm 10 mps 755 mmHg 89%
    20:00 +16°C° 2.7 mm 9 mps 755 mmHg 89%
    21:00 +16°C° 2.7 mm 9 mps 756 mmHg 90%
    22:00 +16°C° 2.7 mm 8 mps 757 mmHg 90%
    23:00 +16°C° 1.8 mm 8 mps 757 mmHg 91%

    Pasado mañana, 24 Abril, Miércoles

    Tiempo Temperatura Precipitaciones Viento Presión Humedad
    00:00 +16°C° 1.8 mm 8 mps 757 mmHg 91%
    01:00 +15°C° 1.8 mm 8 mps 758 mmHg 92%
    02:00 +15°C° 0.8 mm 8 mps 758 mmHg 93%
    03:00 +15°C° 0.8 mm 8 mps 758 mmHg 93%
    04:00 +15°C° 0.8 mm 8 mps 759 mmHg 94%
    05:00 +15°C° 0 mm 8 mps 759 mmHg 93%
    06:00 +15°C° 0 mm 8 mps 759 mmHg 92%
    07:00 +16°C° 0 mm 8 mps 760 mmHg 91%
    08:00 +16°C° 0 mm 8 mps 760 mmHg 89%
    09:00 +16°C° 0 mm 9 mps 761 mmHg 87%
    10:00 +17°C° 0 mm 9 mps 761 mmHg 85%
    11:00 +17°C° 0 mm 8 mps 761 mmHg 82%
    12:00 +18°C° 0 mm 8 mps 761 mmHg 78%
    13:00 +20°C° 0 mm 8 mps 762 mmHg 74%
    14:00 +20°C° 0 mm 7 mps 761 mmHg 73%
    15:00 +20°C° 0 mm 7 mps 761 mmHg 71%
    16:00 +20°C° 0 mm 7 mps 761 mmHg 70%
    17:00 +19°C° 0 mm 6 mps 761 mmHg 72%
    18:00 +17°C° 0 mm 5 mps 761 mmHg 75%
    19:00 +17°C° 0 mm 4 mps 762 mmHg 78%
    20:00 +17°C° 0 mm 4 mps 762 mmHg 77%
    21:00 +17°C° 0 mm 4 mps 762 mmHg 76%
    22:00 +17°C° 0 mm 4 mps 763 mmHg 75%
    23:00 +17°C° 0 mm 4 mps 763 mmHg 74%

    25 Abril, Jueves

    Tiempo Temperatura Precipitaciones Viento Presión Humedad
    00:00 +15°C° 0 mm 4 mps 763 mmHg 74%
    01:00 +15°C° 0 mm 4 mps 763 mmHg 74%
    02:00 +15°C° 0 mm 4 mps 763 mmHg 75%
    03:00 +15°C° 0 mm 4 mps 763 mmHg 75%
    04:00 +15°C° 0 mm 4 mps 763 mmHg 76%
    05:00 +16°C° 0 mm 5 mps 763 mmHg 76%
    06:00 +16°C° 0 mm 5 mps 763 mmHg 75%
    07:00 +17°C° 0 mm 5 mps 763 mmHg 75%
    08:00 +19°C° 0 mm 5 mps 763 mmHg 72%
    09:00 +20°C° 0 mm 6 mps 763 mmHg 68%
    10:00 +21°C° 0 mm 6 mps 763 mmHg 65%
    11:00 +21°C° 0 mm 6 mps 763 mmHg 64%
    12:00 +22°C° 0 mm 6 mps 763 mmHg 63%
    13:00 +22°C° 0 mm 6 mps 762 mmHg 62%
    14:00 +22°C° 0 mm 5 mps 762 mmHg 62%
    15:00 +22°C° 0 mm 5 mps 762 mmHg 62%
    16:00 +22°C° 0 mm 4 mps 762 mmHg 61%
    17:00 +21°C° 0 mm 3 mps 762 mmHg 65%
    18:00 +20°C° 0 mm 3 mps 762 mmHg 68%
    19:00 +19°C° 0 mm 2 mps 762 mmHg 72%
    20:00 +18°C° 0 mm 3 mps 762 mmHg 71%
    21:00 +18°C° 0 mm 3 mps 762 mmHg 70%
    22:00 +18°C° 0 mm 3 mps 763 mmHg 69%
    23:00 +18°C° 0 mm 3 mps 762 mmHg 69%

    26 Abril, Viernes

    Tiempo Temperatura Precipitaciones Viento Presión Humedad
    00:00 +18°C° 0 mm 3 mps 762 mmHg 69%
    01:00 +17°C° 0 mm 3 mps 762 mmHg 69%
    02:00 +17°C° 0 mm 3 mps 762 mmHg 68%
    03:00 +17°C° 0 mm 3 mps 762 mmHg 68%
    04:00 +17°C° 0 mm 3 mps 761 mmHg 68%
    05:00 +18°C° 0 mm 4 mps 761 mmHg 67%
    06:00 +18°C° 0 mm 4 mps 761 mmHg 66%
    07:00 +19°C° 0 mm 4 mps 761 mmHg 65%
    08:00 +20°C° 0 mm 5 mps 761 mmHg 62%
    09:00 +21°C° 0 mm 6 mps 761 mmHg 58%
    10:00 +22°C° 0 mm 7 mps 760 mmHg 55%
    11:00 +22°C° 0 mm 7 mps 760 mmHg 54%
    12:00 +23°C° 0 mm 8 mps 760 mmHg 54%
    13:00 +23°C° 0 mm 8 mps 759 mmHg 53%
    14:00 +22°C° 0.1 mm 7 mps 759 mmHg 55%
    15:00 +21°C° 0.1 mm 6 mps 759 mmHg 58%
    16:00 +21°C° 0.1 mm 5 mps 758 mmHg 60%
    17:00 +20°C° 1.1 mm 5 mps 758 mmHg 65%
    18:00 +19°C° 1.1 mm 5 mps 759 mmHg 71%
    19:00 +17°C° 1.1 mm 5 mps 759 mmHg 76%
    20:00 +17°C° 1 mm 5 mps 759 mmHg 78%
    21:00 +16°C° 1 mm 5 mps 759 mmHg 79%
    22:00 +17°C° 1 mm 4 mps 759 mmHg 81%
    23:00 +17°C° 0.1 mm 4 mps 759 mmHg 82%

    27 Abril, Sábado

    Tiempo Temperatura Precipitaciones Viento Presión Humedad
    00:00 +17°C° 0.1 mm 3 mps 759 mmHg 84%
    01:00 +17°C° 0.1 mm 2 mps 759 mmHg 85%
    02:00 +17°C° 0.5 mm 2 mps 759 mmHg 86%
    03:00 +17°C° 0.5 mm 2 mps 759 mmHg 87%
    04:00 +17°C° 0.5 mm 2 mps 759 mmHg 88%
    05:00 +17°C° 0.7 mm 2 mps 759 mmHg 86%
    06:00 +17°C° 0.7 mm 2 mps 759 mmHg 85%
    07:00 +17°C° 0.7 mm 2 mps 760 mmHg 84%
    08:00 +17°C° 0.2 mm 3 mps 760 mmHg 78%
    09:00 +18°C° 0.2 mm 3 mps 760 mmHg 73%
    10:00 +18°C° 0.2 mm 4 mps 760 mmHg 67%
    11:00 +19°C° 0.3 mm 4 mps 761 mmHg 66%
    12:00 +19°C° 0.3 mm 4 mps 761 mmHg 65%
    13:00 +19°C° 0.3 mm 4 mps 761 mmHg 64%
    14:00 +19°C° 0.5 mm 4 mps 761 mmHg 62%
    15:00 +19°C° 0.5 mm 4 mps 761 mmHg 61%
    16:00 +18°C° 0.5 mm 4 mps 761 mmHg 60%
    17:00 +17°C° 0 mm 4 mps 761 mmHg 63%
    18:00 +15°C° 0 mm 4 mps 761 mmHg 65%
    19:00 +14°C° 0 mm 4 mps 761 mmHg 68%
    20:00 +14°C° 0 mm 4 mps 762 mmHg 68%
    21:00 +14°C° 0 mm 3 mps 762 mmHg 68%
    22:00 +14°C° 0 mm 3 mps 762 mmHg 68%
    23:00 +14°C° 0.3 mm 3 mps 762 mmHg 72%
    Mostrar más